TimeCDT,TemperatureF,Dew PointF,Humidity,Sea Level PressureIn,VisibilityMPH,Wind Direction,Wind SpeedMPH,Gust SpeedMPH,PrecipitationIn,Events,Conditions,WindDirDegrees,DateUTC
12:16 AM,75.2,57.2,53,30.11,10.0,WNW,21.9,31.1,N/A,,Overcast,300,2012-09-13 05:16:00
12:53 AM,70.0,57.9,65,30.06,10.0,NW,21.9,27.6,N/A,,Overcast,320,2012-09-13 05:53:00
1:53 AM,64.0,54.0,70,30.08,10.0,NNW,23.0,32.2,0.00,,Overcast,330,2012-09-13 06:53:00
2:53 AM,63.0,52.0,67,30.08,10.0,North,20.7,26.5,N/A,,Mostly Cloudy,350,2012-09-13 07:53:00
3:53 AM,59.0,52.0,78,30.09,10.0,North,24.2,28.8,N/A,,Scattered Clouds,360,2012-09-13 08:53:00
4:53 AM,57.9,53.1,84,30.09,10.0,North,19.6,-,N/A,,Mostly Cloudy,10,2012-09-13 09:53:00
5:53 AM,57.0,54.0,89,30.11,10.0,North,21.9,28.8,0.00,Rain,Light Rain,360,2012-09-13 10:53:00
6:04 AM,57.2,53.6,88,30.18,8.0,North,18.4,26.5,0.00,Rain,Light Rain,360,2012-09-13 11:04:00
6:16 AM,57.2,53.6,88,30.17,6.0,North,25.3,33.4,0.01,Rain,Rain,10,2012-09-13 11:16:00
6:25 AM,57.2,53.6,88,30.17,6.0,North,24.2,31.1,0.02,Rain,Light Rain,360,2012-09-13 11:25:00
6:53 AM,57.0,54.0,89,30.12,10.0,North,24.2,29.9,0.02,Rain,Light Rain,10,2012-09-13 11:53:00
7:11 AM,57.2,55.4,94,30.19,10.0,North,20.7,29.9,0.00,,Overcast,360,2012-09-13 12:11:00
7:53 AM,57.0,55.0,93,30.17,10.0,North,19.6,26.5,0.00,,Overcast,360,2012-09-13 12:53:00
8:53 AM,57.0,55.0,93,30.19,10.0,North,18.4,-,N/A,,Overcast,360,2012-09-13 13:53:00
9:26 AM,57.2,55.4,94,30.25,3.0,North,19.6,26.5,0.05,Rain,Rain,360,2012-09-13 14:26:00
9:41 AM,57.2,55.4,94,30.26,2.0,North,19.6,-,0.12,Rain,Heavy Rain,10,2012-09-13 14:41:00
9:49 AM,57.2,55.4,94,30.26,3.0,North,16.1,-,0.13,Rain,Rain,360,2012-09-13 14:49:00
9:53 AM,57.0,55.9,96,30.22,5.0,North,17.3,23.0,0.13,Rain,Rain,360,2012-09-13 14:53:00
10:39 AM,57.2,55.4,94,30.27,10.0,North,19.6,-,0.00,Rain,Light Rain,10,2012-09-13 15:39:00
10:53 AM,57.9,55.9,93,30.22,10.0,North,18.4,26.5,0.00,,Overcast,10,2012-09-13 15:53:00
11:16 AM,57.2,55.4,94,30.27,10.0,North,20.7,-,N/A,,Overcast,10,2012-09-13 16:16:00
11:20 AM,57.2,55.4,94,30.27,10.0,North,19.6,-,N/A,,Overcast,10,2012-09-13 16:20:00
11:44 AM,59.0,55.4,88,30.28,8.0,North,18.4,-,0.01,Rain,Light Rain,10,2012-09-13 16:44:00
11:53 AM,59.0,55.9,90,30.23,8.0,North,19.6,-,0.01,Rain,Light Rain,360,2012-09-13 16:53:00
12:02 PM,59.0,55.4,88,30.28,7.0,North,16.1,-,0.00,Rain,Light Rain,10,2012-09-13 17:02:00
12:53 PM,59.0,55.9,90,30.25,4.0,North,19.6,-,0.02,Rain,Rain,10,2012-09-13 17:53:00
1:53 PM,57.9,55.0,90,30.26,8.0,North,20.7,26.5,0.01,Rain,Light Rain,360,2012-09-13 18:53:00
2:00 PM,57.2,55.4,94,30.29,8.0,North,19.6,26.5,0.00,Rain,Light Rain,360,2012-09-13 19:00:00
2:10 PM,57.2,55.4,94,30.28,7.0,North,23.0,28.8,0.00,Rain,Light Rain,360,2012-09-13 19:10:00
2:35 PM,57.2,55.4,94,30.27,10.0,North,23.0,31.1,0.00,Rain,Light Rain,350,2012-09-13 19:35:00
2:53 PM,57.9,55.0,90,30.24,8.0,North,21.9,32.2,0.00,Rain,Light Rain,360,2012-09-13 19:53:00
3:53 PM,57.9,55.0,90,30.22,10.0,North,23.0,32.2,0.00,,Overcast,10,2012-09-13 20:53:00
4:34 PM,57.2,55.4,94,30.26,10.0,North,19.6,26.5,N/A,,Overcast,10,2012-09-13 21:34:00
4:53 PM,57.0,54.0,89,30.24,10.0,North,19.6,29.9,N/A,,Overcast,10,2012-09-13 21:53:00
5:17 PM,57.2,53.6,88,30.26,6.0,North,25.3,29.9,0.00,Rain,Light Rain,10,2012-09-13 22:17:00
5:38 PM,57.2,53.6,88,30.26,7.0,North,20.7,27.6,0.00,Rain,Light Rain,10,2012-09-13 22:38:00
5:53 PM,57.0,54.0,89,30.25,6.0,North,19.6,27.6,0.00,Rain,Light Rain,10,2012-09-13 22:53:00
6:14 PM,57.2,53.6,88,30.28,8.0,North,18.4,25.3,0.00,Rain,Light Rain,10,2012-09-13 23:14:00
6:53 PM,57.0,54.0,89,30.27,10.0,North,19.6,27.6,0.00,,Overcast,10,2012-09-13 23:53:00
7:53 PM,57.0,54.0,89,30.27,10.0,North,20.7,27.6,N/A,,Overcast,360,2012-09-14 00:53:00
8:14 PM,57.2,53.6,88,30.29,10.0,North,21.9,28.8,N/A,,Overcast,10,2012-09-14 01:14:00
8:53 PM,55.9,54.0,93,30.30,6.0,North,18.4,29.9,0.00,Rain,Light Rain,10,2012-09-14 01:53:00
9:53 PM,55.9,54.0,93,30.32,7.0,North,18.4,27.6,0.00,,Overcast,10,2012-09-14 02:53:00
10:53 PM,55.9,54.0,93,30.33,4.0,North,17.3,-,0.00,Rain,Light Rain,10,2012-09-14 03:53:00
11:07 PM,55.4,53.6,94,30.35,2.5,North,20.7,27.6,0.00,,Overcast,10,2012-09-14 04:07:00
11:22 PM,55.4,53.6,94,30.35,3.0,North,20.7,28.8,0.00,,Overcast,10,2012-09-14 04:22:00
11:53 PM,55.9,54.0,93,30.32,4.0,North,18.4,23.0,0.00,Rain,Light Rain,10,2012-09-14 04:53:00